TimeEST,TemperatureF,Dew PointF,Humidity,Sea Level PressureIn,VisibilityMPH,Wind Direction,Wind SpeedMPH,Gust SpeedMPH,PrecipitationIn,Events,Conditions,WindDirDegrees,DateUTC
12:15 AM,36.9,32.0,83,30.20,10.0,NNE,4.6,-,N/A,,Overcast,30,2012-12-09 05:15:00
12:34 AM,36.7,32.0,83,30.20,10.0,NNE,3.5,-,N/A,,Mostly Cloudy,30,2012-12-09 05:34:00
12:55 AM,36.5,32.0,84,30.20,10.0,NE,5.8,-,N/A,,Mostly Cloudy,40,2012-12-09 05:55:00
1:15 AM,36.5,31.8,83,30.20,10.0,NE,5.8,-,N/A,,Scattered Clouds,50,2012-12-09 06:15:00
1:34 AM,36.1,31.1,82,30.20,10.0,NE,5.8,-,N/A,,Scattered Clouds,50,2012-12-09 06:34:00
1:55 AM,36.1,30.9,81,30.20,10.0,ENE,4.6,-,N/A,,Mostly Cloudy,60,2012-12-09 06:55:00
2:14 AM,36.1,30.6,80,30.20,10.0,ENE,8.1,-,N/A,,Mostly Cloudy,60,2012-12-09 07:14:00
2:34 AM,36.0,30.6,81,30.20,10.0,ENE,9.2,-,N/A,,Overcast,60,2012-12-09 07:34:00
2:54 AM,36.0,30.2,80,30.21,10.0,ENE,6.9,-,N/A,,Overcast,60,2012-12-09 07:54:00
3:14 AM,36.0,30.2,80,30.20,10.0,NE,6.9,-,N/A,,Overcast,50,2012-12-09 08:14:00
3:35 AM,35.8,30.2,80,30.20,10.0,NE,6.9,-,N/A,,Mostly Cloudy,40,2012-12-09 08:35:00
3:54 AM,35.6,30.2,81,30.18,10.0,ENE,8.1,-,N/A,,Mostly Cloudy,60,2012-12-09 08:54:00
4:14 AM,35.6,30.4,81,30.19,10.0,ENE,6.9,-,N/A,,Mostly Cloudy,60,2012-12-09 09:14:00
4:35 AM,36.0,30.7,81,30.19,10.0,ENE,5.8,-,N/A,,Overcast,70,2012-12-09 09:35:00
4:54 AM,35.8,30.9,82,30.19,10.0,ENE,4.6,-,N/A,,Overcast,70,2012-12-09 09:54:00
5:15 AM,36.0,31.1,82,30.19,10.0,ENE,4.6,-,N/A,,Overcast,70,2012-12-09 10:15:00
5:35 AM,36.5,31.6,83,30.20,10.0,ENE,3.5,-,N/A,,Overcast,60,2012-12-09 10:35:00
5:54 AM,36.7,31.6,82,30.20,10.0,ENE,5.8,-,N/A,,Overcast,60,2012-12-09 10:54:00
6:15 AM,36.9,31.5,81,30.19,10.0,East,8.1,-,N/A,,Overcast,90,2012-12-09 11:15:00
6:35 AM,37.4,30.7,77,30.19,10.0,East,8.1,16.1,N/A,,Overcast,90,2012-12-09 11:35:00
6:54 AM,37.6,30.9,77,30.20,10.0,East,6.9,-,N/A,,Overcast,90,2012-12-09 11:54:00
7:15 AM,37.6,30.6,76,30.19,10.0,East,16.1,-,N/A,,Overcast,100,2012-12-09 12:15:00
7:35 AM,37.2,30.2,76,30.19,10.0,East,9.2,16.1,N/A,,Overcast,90,2012-12-09 12:35:00
7:54 AM,36.9,30.2,77,30.19,10.0,East,10.4,-,N/A,,Overcast,100,2012-12-09 12:54:00
8:15 AM,36.7,30.0,77,30.19,10.0,East,8.1,-,N/A,,Overcast,80,2012-12-09 13:15:00
8:34 AM,36.5,30.2,78,30.18,10.0,ENE,8.1,-,N/A,,Overcast,70,2012-12-09 13:34:00
8:55 AM,36.1,29.8,78,30.16,10.0,ENE,9.2,-,N/A,,Overcast,70,2012-12-09 13:55:00
9:15 AM,36.5,30.2,78,30.15,10.0,East,8.1,-,N/A,,Mostly Cloudy,80,2012-12-09 14:15:00
9:34 AM,36.7,30.7,79,30.15,10.0,East,11.5,-,N/A,,Overcast,80,2012-12-09 14:34:00
9:55 AM,36.7,30.9,80,30.13,10.0,East,10.4,16.1,N/A,,Overcast,90,2012-12-09 14:55:00
10:14 AM,36.9,31.1,80,30.13,10.0,ENE,10.4,-,N/A,,Overcast,70,2012-12-09 15:14:00
10:34 AM,37.0,31.6,81,30.12,10.0,East,10.4,-,N/A,,Overcast,80,2012-12-09 15:34:00
10:55 AM,37.4,32.0,81,30.11,10.0,East,9.2,-,N/A,,Overcast,80,2012-12-09 15:55:00
11:14 AM,37.6,32.2,81,30.10,10.0,East,10.4,-,N/A,,Overcast,80,2012-12-09 16:14:00
11:35 AM,37.9,32.9,82,30.09,10.0,East,9.2,16.1,N/A,,Overcast,80,2012-12-09 16:35:00
11:54 AM,38.3,33.1,81,30.07,10.0,ENE,12.7,-,N/A,,Overcast,70,2012-12-09 16:54:00
12:15 PM,38.5,33.4,82,30.05,10.0,East,11.5,-,N/A,,Overcast,80,2012-12-09 17:15:00
12:35 PM,38.3,33.8,84,30.04,10.0,ENE,9.2,-,N/A,,Overcast,70,2012-12-09 17:35:00
12:54 PM,38.1,33.4,83,30.03,10.0,ENE,15.0,19.6,N/A,,Overcast,70,2012-12-09 17:54:00
1:15 PM,37.4,33.8,87,30.02,5.0,East,12.7,-,N/A,Rain,Light Rain,80,2012-12-09 18:15:00
1:34 PM,37.2,33.8,87,30.00,3.0,East,13.8,17.3,N/A,Rain,Light Rain,80,2012-12-09 18:34:00
1:55 PM,36.5,33.8,90,29.99,5.0,ENE,13.8,19.6,N/A,Rain,Rain,70,2012-12-09 18:55:00
2:15 PM,36.0,33.3,90,29.96,7.0,ENE,15.0,18.4,N/A,Rain,Rain,70,2012-12-09 19:15:00
2:34 PM,35.2,32.4,89,29.94,7.0,ENE,15.0,21.9,N/A,,Light Drizzle,70,2012-12-09 19:34:00
2:55 PM,34.9,32.0,89,29.93,10.0,ENE,13.8,20.7,N/A,,Overcast,70,2012-12-09 19:55:00
3:14 PM,34.7,32.0,90,29.92,10.0,ENE,13.8,17.3,N/A,,Light Drizzle,60,2012-12-09 20:14:00
3:35 PM,34.7,31.8,89,29.90,10.0,ENE,12.7,-,N/A,,Overcast,70,2012-12-09 20:35:00
3:54 PM,34.5,31.6,89,29.89,10.0,ENE,13.8,17.3,N/A,,Overcast,70,2012-12-09 20:54:00
4:14 PM,34.7,31.3,87,29.88,10.0,ENE,9.2,-,N/A,,Overcast,70,2012-12-09 21:14:00
4:35 PM,34.7,31.6,89,29.87,10.0,ENE,12.7,-,N/A,,Overcast,70,2012-12-09 21:35:00
4:54 PM,34.7,31.5,88,29.87,10.0,East,11.5,-,N/A,,Overcast,90,2012-12-09 21:54:00
5:14 PM,34.7,31.8,89,29.87,5.0,ENE,8.1,-,N/A,Rain,Light Rain,60,2012-12-09 22:14:00
5:35 PM,34.7,32.0,90,29.87,4.0,NE,4.6,-,N/A,,Overcast,50,2012-12-09 22:35:00
5:54 PM,34.7,32.2,91,29.85,5.0,NE,6.9,-,N/A,,Light Drizzle,50,2012-12-09 22:54:00
6:14 PM,34.7,32.4,91,29.84,7.0,ENE,9.2,-,N/A,,Overcast,60,2012-12-09 23:14:00
6:35 PM,34.3,32.2,92,29.81,4.0,ENE,6.9,-,N/A,,Overcast,70,2012-12-09 23:35:00
6:54 PM,34.3,32.4,92,29.80,3.0,ENE,5.8,-,N/A,,Overcast,60,2012-12-09 23:54:00
7:15 PM,34.7,32.9,93,29.80,3.0,NE,5.8,-,N/A,,Overcast,50,2012-12-10 00:15:00
7:35 PM,34.7,32.9,93,29.79,2.5,NE,4.6,-,N/A,,Overcast,50,2012-12-10 00:35:00
7:54 PM,34.7,32.9,93,29.77,2.5,NNE,3.5,-,N/A,,Overcast,30,2012-12-10 00:54:00
8:15 PM,34.7,33.1,94,29.77,2.0,Calm,Calm,-,N/A,,Overcast,0,2012-12-10 01:15:00
8:35 PM,34.9,33.3,94,29.76,1.8,NNE,3.5,-,N/A,,Overcast,20,2012-12-10 01:35:00
8:54 PM,34.9,33.4,94,29.73,1.8,ENE,4.6,-,N/A,,Overcast,60,2012-12-10 01:54:00
9:15 PM,35.2,33.8,94,29.73,1.8,Calm,Calm,-,N/A,,Overcast,0,2012-12-10 02:15:00
9:34 PM,35.4,33.8,94,29.72,2.0,NNE,3.5,-,N/A,,Overcast,30,2012-12-10 02:34:00
9:55 PM,35.4,34.0,94,29.71,2.0,Calm,Calm,-,N/A,,Overcast,0,2012-12-10 02:55:00
10:14 PM,35.6,34.2,94,29.70,1.5,Calm,Calm,-,N/A,,Overcast,0,2012-12-10 03:14:00
10:35 PM,35.8,34.5,95,29.70,1.2,Calm,Calm,-,N/A,,Overcast,0,2012-12-10 03:35:00
10:55 PM,36.5,35.2,95,29.69,1.0,Calm,Calm,-,N/A,,Overcast,0,2012-12-10 03:55:00
11:14 PM,36.5,35.1,95,29.68,0.8,Calm,Calm,-,N/A,,Overcast,0,2012-12-10 04:14:00
11:35 PM,36.5,35.2,95,29.67,0.5,Calm,Calm,-,N/A,Rain,Light Rain,0,2012-12-10 04:35:00
11:54 PM,37.6,36.1,95,29.67,0.5,Calm,Calm,-,N/A,Fog,Fog,0,2012-12-10 04:54:00